Kilmarnock, Virginia, United States (22482)
Lat: 37.71N, Lon: 76.38W
Wx Zone: VAZ078
Local Info
Past Weather Observations for Yesterday

NOTE: This archive is for the closest National Weather Service station to Kilmarnock. Information may differ from the station used for current weather conditions.

Click here for Long-term Archive

Time Weather Temperature Dewpoint Humidity Pressure Winds Precip Visibility
23:55
Overcast
66°F / 19°C 63°F / 17°C 88% 29.98 in
(1015 mb)
Calm - 10SM
23:35
Overcast
66°F / 19°C 63°F / 17°C 88% 29.98 in
(1015 mb)
Calm - 10SM
23:15
Overcast
66°F / 19°C 64°F / 18°C 94% 29.98 in
(1015 mb)
Calm - 10SM
22:55
Overcast
66°F / 19°C 64°F / 18°C 94% 29.98 in
(1015 mb)
Calm - 10SM
22:35
Overcast
66°F / 19°C 64°F / 18°C 94% 29.98 in
(1015 mb)
Calm - 7SM
22:15
Partly Cloudy
66°F / 19°C 64°F / 18°C 94% 29.98 in
(1015 mb)
Calm - 7SM
21:55
Mostly Cloudy
66°F / 19°C 63°F / 17°C 88% 29.98 in
(1015 mb)
Calm 0.02 in
(0.51 mm)
5SM
21:35
Mostly Cloudy
66°F / 19°C 64°F / 18°C 94% 29.98 in
(1015 mb)
Calm 0.01 in
(0.25 mm)
7SM
21:15
Overcast
66°F / 19°C 64°F / 18°C 94% 29.98 in
(1015 mb)
Calm - 7SM
20:55
Overcast
66°F / 19°C 64°F / 18°C 94% 29.98 in
(1015 mb)
Calm 0.02 in
(0.51 mm)
7SM
20:35
Overcast
66°F / 19°C 64°F / 18°C 94% 30.01 in
(1016 mb)
Calm 0.02 in
(0.51 mm)
7SM
20:15
Overcast
68°F / 20°C 64°F / 18°C 88% 29.98 in
(1015 mb)
Calm 0.01 in
(0.25 mm)
10SM
19:55
Overcast
66°F / 19°C 64°F / 18°C 94% 29.98 in
(1015 mb)
Calm 0.02 in
(0.51 mm)
5SM
19:35
Overcast
68°F / 20°C 64°F / 18°C 88% 29.98 in
(1015 mb)
Calm 0.01 in
(0.25 mm)
10SM
19:15
Overcast
68°F / 20°C 64°F / 18°C 88% 29.98 in
(1015 mb)
Calm - 10SM
18:55
Overcast
68°F / 20°C 64°F / 18°C 88% 29.98 in
(1015 mb)
Calm 0.02 in
(0.51 mm)
10SM
18:35
Overcast
70°F / 21°C 66°F / 19°C 88% 29.98 in
(1015 mb)
Calm 0.01 in
(0.25 mm)
10SM
18:15
Overcast
70°F / 21°C 66°F / 19°C 88% 29.98 in
(1015 mb)
Calm - 10SM
17:55
Overcast
70°F / 21°C 66°F / 19°C 88% 29.98 in
(1015 mb)
Calm 0.03 in
(0.76 mm)
7SM
17:35
Mostly Cloudy
70°F / 21°C 66°F / 19°C 88% 29.98 in
(1015 mb)
Calm 0.01 in
(0.25 mm)
7SM
17:15
Partly Cloudy
70°F / 21°C 66°F / 19°C 88% 29.98 in
(1015 mb)
Calm - 10SM
16:55
Partly Cloudy
70°F / 21°C 66°F / 19°C 88% 29.98 in
(1015 mb)
Calm - 10SM
16:35
Mostly Cloudy
70°F / 21°C 64°F / 18°C 83% 29.98 in
(1015 mb)
Calm - 10SM
16:15
Mostly Cloudy
70°F / 21°C 64°F / 18°C 83% 29.98 in
(1015 mb)
Calm - 10SM
15:55
Mostly Cloudy
72°F / 22°C 64°F / 18°C 78% 29.98 in
(1015 mb)
Calm - 10SM
15:35
Partly Cloudy
72°F / 22°C 63°F / 17°C 73% 29.98 in
(1015 mb)
Calm - 10SM
15:15
Clear
72°F / 22°C 63°F / 17°C 73% 29.98 in
(1015 mb)
Calm - 10SM
14:55
Partly Cloudy
72°F / 22°C 63°F / 17°C 73% 29.98 in
(1015 mb)
Calm - 10SM
14:35
Partly Cloudy
72°F / 22°C 63°F / 17°C 73% 30.01 in
(1016 mb)
SSW 3.5 mph
(SSW 6 kph)
- 10SM
14:15
Partly Cloudy
72°F / 22°C 63°F / 17°C 73% 29.98 in
(1015 mb)
Calm - 10SM
13:55
Mostly Cloudy
72°F / 22°C 63°F / 17°C 73% 30.01 in
(1016 mb)
Calm - 10SM
13:35
Partly Cloudy
72°F / 22°C 63°F / 17°C 73% 30.01 in
(1016 mb)
Calm - 10SM
13:15
Partly Cloudy
72°F / 22°C 63°F / 17°C 73% 30.01 in
(1016 mb)
W 3.5 mph
(W 6 kph)
- 10SM
12:55
Partly Cloudy
72°F / 22°C 61°F / 16°C 69% 30.01 in
(1016 mb)
W 5.8 mph
(W 9 kph)
- 10SM
12:35
Clear
72°F / 22°C 63°F / 17°C 73% 30.04 in
(1017 mb)
W 3.5 mph
(W 6 kph)
- 10SM
12:15
Clear
72°F / 22°C 64°F / 18°C 78% 30.04 in
(1017 mb)
NW 3.5 mph
(NW 6 kph)
- 10SM
11:55
Partly Cloudy
72°F / 22°C 64°F / 18°C 78% 30.04 in
(1017 mb)
Calm - 10SM
11:35
Mostly Cloudy
72°F / 22°C 64°F / 18°C 78% 30.04 in
(1017 mb)
Calm - 10SM
11:15
Mostly Cloudy
70°F / 21°C 63°F / 17°C 78% 30.04 in
(1017 mb)
Calm - 10SM
10:55
Partly Cloudy
70°F / 21°C 63°F / 17°C 78% 30.04 in
(1017 mb)
SSW 4.6 mph
(SSW 7 kph)
- 10SM
10:35
Partly Cloudy
70°F / 21°C 63°F / 17°C 78% 30.04 in
(1017 mb)
SSW 5.8 mph
(SSW 9 kph)
- 10SM
10:15
Partly Cloudy
72°F / 22°C 61°F / 16°C 69% 30.06 in
(1018 mb)
SSW 3.5 mph
(SSW 6 kph)
- 10SM
09:55
Clear
72°F / 22°C 63°F / 17°C 73% 30.06 in
(1018 mb)
SSW 5.8 mph
(SSW 9 kph)
- 10SM
09:35
Clear
72°F / 22°C 64°F / 18°C 78% 30.04 in
(1017 mb)
W 5.8 mph
(W 9 kph)
- 10SM
09:15
Clear
72°F / 22°C 63°F / 17°C 73% 30.04 in
(1017 mb)
W 3.5 mph
(W 6 kph)
- 10SM
08:55
Clear
70°F / 21°C 64°F / 18°C 83% 30.04 in
(1017 mb)
Calm - 10SM
08:35
Clear
68°F / 20°C 64°F / 18°C 88% 30.04 in
(1017 mb)
Calm - 10SM
08:15
Clear
68°F / 20°C 64°F / 18°C 88% 30.04 in
(1017 mb)
SW 3.5 mph
(SW 6 kph)
- 10SM
07:55
Clear
68°F / 20°C 66°F / 19°C 94% 30.04 in
(1017 mb)
SSE 3.5 mph
(SSE 6 kph)
- 7SM
07:35
Clear
66°F / 19°C 64°F / 18°C 94% 30.04 in
(1017 mb)
Calm - 5SM
07:15
Clear
64°F / 18°C 63°F / 17°C 94% 30.04 in
(1017 mb)
Calm - 5SM
06:55
Clear
63°F / 17°C 61°F / 16°C 94% 30.04 in
(1017 mb)
Calm - 7SM
06:35
Clear
61°F / 16°C 59°F / 15°C 94% 30.04 in
(1017 mb)
Calm - 7SM
06:15
Clear
63°F / 17°C 59°F / 15°C 88% 30.04 in
(1017 mb)
Calm - 2 1/2SM
05:55
Clear
61°F / 16°C 59°F / 15°C 94% 30.04 in
(1017 mb)
Calm - 10SM
05:35
Clear
61°F / 16°C 59°F / 15°C 94% 30.04 in
(1017 mb)
Calm - 5SM
05:15
Clear
63°F / 17°C 61°F / 16°C 94% 30.04 in
(1017 mb)
Calm - 7SM
04:55
Clear
63°F / 17°C 59°F / 15°C 88% 30.04 in
(1017 mb)
Calm - 7SM
04:35
Clear
61°F / 16°C 59°F / 15°C 94% 30.04 in
(1017 mb)
Calm - 5SM
04:15
Clear
61°F / 16°C 59°F / 15°C 94% 30.04 in
(1017 mb)
Calm - 7SM
03:55
Clear
59°F / 15°C 57°F / 14°C 94% 30.04 in
(1017 mb)
Calm - 4SM
03:35
Clear
61°F / 16°C 59°F / 15°C 94% 30.04 in
(1017 mb)
Calm - 7SM
03:15
Clear
59°F / 15°C 57°F / 14°C 94% 30.04 in
(1017 mb)
Calm - 10SM
02:55
Clear
61°F / 16°C 59°F / 15°C 94% 30.04 in
(1017 mb)
Calm - 10SM
02:35
Clear
61°F / 16°C 59°F / 15°C 94% 30.04 in
(1017 mb)
Calm - 7SM
02:15
Clear
61°F / 16°C 59°F / 15°C 94% 30.04 in
(1017 mb)
Calm - 10SM
01:55
Clear
61°F / 16°C 59°F / 15°C 94% 30.04 in
(1017 mb)
Calm - 4SM
01:35
Clear
63°F / 17°C 59°F / 15°C 88% 30.06 in
(1018 mb)
Calm - 7SM
01:15
Clear
61°F / 16°C 59°F / 15°C 94% 30.06 in
(1018 mb)
Calm - 10SM
00:55
Clear
61°F / 16°C 59°F / 15°C 94% 30.06 in
(1018 mb)
Calm - 7SM
00:35
Clear
63°F / 17°C 61°F / 16°C 94% 30.06 in
(1018 mb)
Calm - 10SM
00:15
Clear
61°F / 16°C 59°F / 15°C 94% 30.06 in
(1018 mb)
Calm - 10SM
Time Weather Temperature Dewpoint Humidity Pressure Winds Precip Visibility


Weather for websites

WeatherForYou.com, LLC is not responsible for any damages or problems caused by this service. Current weather conditions are obtained from the closest station including government and personal stations which may have varying degrees of accuracy. Weather forecasts are derived from the NOAA NDFD. Like all things, this site belongs to Jesus Christ... He just trusts me to maintain it. If you have any questions or comments email webmaster@weatherforyou.com

Copyright © 2014, WeatherForYou.com LLC. All rights reserved.